ON7DE Weather Reports


time (UTC)temp
C
wind
direction
speed
KPH
gust
KPH
rain 1hr
cm
rain 24hr
cm
rain mn
cm
humidity
%
barometer
mb
20260507074505 12 6 1.6 3.2 0.00 0.00 0.00 81 1015.6
20260507073603 11 39 3.2 6.4 0.00 0.00 0.00 82 1015.5
20260507072703 11 28 1.6 3.2 0.00 0.00 0.00 83 1015.4
20260507071804 11 36 3.2 4.8 0.00 0.00 0.00 83 1015.3
20260507070905 11 50 3.2 4.8 0.00 0.00 0.00 72 1015.4
20260507070009 11 55 1.6 4.8 0.00 0.03 0.00 83 1015.2
20260507065617 11 63 1.6 4.8 0.00 0.03 0.00 83 1015.2
20260507064504 10 50 1.6 3.2 0.00 0.03 0.00 83 1015.2
20260507063603 10 55 3.2 4.8 0.00 0.03 0.00 83 1015.1
20260507062705 10 61 3.2 4.8 0.00 0.03 0.00 83 1015.3
20260507061803 10 56 3.2 4.8 0.00 0.03 0.00 84 1015.1
20260507060903 10 45 3.2 3.2 0.00 0.03 0.00 85 1015.1
20260507060004 10 11 3.2 3.2 0.00 0.03 0.00 86 1014.9
20260507055403 10 8 3.2 6.4 0.00 0.03 0.00 86 1014.9
20260507054505 10 157 0.0 3.2 0.00 0.03 0.00 89 1014.6
20260507053603 10 0 0.0 0.0 0.00 0.03 0.00 91 1014.9
20260507052704 9 0 0.0 0.0 0.00 0.03 0.00 92 1014.7
20260507051803 9 0 0.0 0.0 0.00 0.03 0.00 92 1014.6
20260507050908 9 0 0.0 0.0 0.00 0.03 0.00 92 1014.5
20260507050004 9 0 0.0 0.0 0.00 0.03 0.00 92 1014.3
20260507045405 9 0 0.0 0.0 0.00 0.03 0.00 92 1014.5
20260507044504 9 0 0.0 0.0 0.00 0.03 0.00 92 1014.4
20260507043605 9 0 0.0 0.0 0.00 0.03 0.00 92 1014.2
20260507042705 9 0 0.0 0.0 0.00 0.03 0.00 91 1014.2
20260507041805 9 0 0.0 0.0 0.00 0.03 0.00 91 1014.1
20260507040906 9 0 0.0 0.0 0.00 0.03 0.00 91 1014.1
20260507040004 9 0 0.0 0.0 0.00 0.03 0.00 91 1013.9
20260507035403 9 0 0.0 0.0 0.00 0.03 0.00 91 1014.0
20260507034503 9 0 0.0 0.0 0.00 0.03 0.00 91 1013.8
20260507033818 9 0 0.0 0.0 0.00 0.03 0.00 91 1013.7
20260507032704 9 0 0.0 0.0 0.00 0.03 0.00 91 1013.7
20260507031804 9 0 0.0 0.0 0.00 0.03 0.00 91 1013.6
20260507030904 9 0 0.0 0.0 0.00 0.03 0.00 92 1013.7
20260507030213 9 0 0.0 0.0 0.00 0.03 0.00 91 1013.6
20260507025405 9 0 0.0 0.0 0.00 0.03 0.00 91 1013.6
20260507024716 9 0 0.0 0.0 0.00 0.03 0.00 91 1013.5
20260507023606 9 0 0.0 0.0 0.00 0.03 0.00 91 1013.5
20260507022703 9 0 0.0 0.0 0.00 0.03 0.00 91 1013.5
20260507022019 9 0 0.0 0.0 0.00 0.03 0.00 90 1013.3
20260507020905 9 0 0.0 0.0 0.00 0.03 0.00 89 1013.3
20260507020005 9 0 0.0 0.0 0.00 0.03 0.00 89 1013.2
20260507015405 9 0 0.0 0.0 0.00 0.03 0.00 89 1013.4
20260507014717 9 0 0.0 0.0 0.00 0.03 0.00 89 1013.1
20260507013608 9 0 0.0 0.0 0.00 0.03 0.00 89 1013.2
20260507012704 9 0 0.0 0.0 0.00 0.03 0.00 89 1013.1
20260507011805 9 0 0.0 0.0 0.00 0.03 0.00 88 1013.2
20260507010903 9 0 0.0 0.0 0.00 0.03 0.00 87 1013.0
20260507010005 9 0 0.0 0.0 0.00 0.03 0.00 87 1013.1
20260507005404 9 0 0.0 0.0 0.00 0.03 0.00 87 1012.9
20260507004505 9 0 0.0 0.0 0.00 0.03 0.00 86 1013.3
20260507003815 9 0 0.0 0.0 0.00 0.03 0.00 86 1013.1
20260507002918 10 0 0.0 0.0 0.00 0.03 0.00 86 1013.3
20260507001805 9 0 0.0 0.0 0.00 0.03 0.00 84 1012.9
20260507000904 9 0 0.0 0.0 0.00 0.03 0.00 83 1012.9
20260507000005 9 0 0.0 0.0 0.00 0.03 0.00 83 1013.1
20260506235403 9 0 0.0 0.0 0.00 0.03 0.00 83 1013.1
20260506234508 10 0 0.0 0.0 0.00 0.03 0.00 82 1013.2
20260506233603 10 0 0.0 0.0 0.00 0.03 0.00 80 1013.0
20260506232703 10 0 0.0 0.0 0.00 0.03 0.00 77 1012.7
20260506232016 10 0 0.0 0.0 0.00 0.03 0.00 76 1012.9
20260506230903 10 0 0.0 0.0 0.00 0.03 0.00 77 1012.7
20260506230004 10 0 0.0 0.0 0.00 0.03 0.00 77 1012.7
20260506225406 10 0 0.0 0.0 0.00 0.03 0.00 76 1012.8
20260506224504 10 0 0.0 0.0 0.00 0.03 0.00 75 1012.7
20260506223603 10 0 0.0 0.0 0.00 0.03 0.00 75 1012.5
20260506222705 10 0 0.0 0.0 0.00 0.03 0.00 75 1012.5
20260506221805 10 0 0.0 0.0 0.00 0.03 0.00 75 1012.5
20260506220905 10 0 0.0 0.0 0.00 0.03 0.00 75 1012.5
20260506220221 10 0 0.0 0.0 0.00 0.03 0.00 74 1012.4
20260506215408 10 67 0.0 1.6 0.00 0.03 0.03 74 1012.5
20260506214504 11 67 1.6 4.8 0.00 0.03 0.03 74 1012.4
20260506213603 11 60 3.2 4.8 0.00 0.03 0.03 73 1012.5
20260506212704 11 60 3.2 4.8 0.00 0.03 0.03 74 1012.5
20260506212017 11 60 4.8 4.8 0.00 0.03 0.03 74 1012.2
20260506211114 11 70 3.2 4.8 0.00 0.03 0.03 75 1012.2
20260506210005 11 75 4.8 6.4 0.00 0.03 0.03 75 1012.0
20260506205403 11 71 4.8 6.4 0.00 0.03 0.03 75 1012.2
20260506204505 11 68 3.2 6.4 0.00 0.03 0.03 74 1012.0
20260506203818 11 57 3.2 4.8 0.00 0.03 0.03 74 1012.0
20260506202706 11 62 4.8 6.4 0.00 0.03 0.03 74 1011.9
20260506201805 11 69 3.2 6.4 0.00 0.03 0.03 75 1011.8
20260506200905 11 54 6.4 8.0 0.00 0.03 0.03 74 1011.8
20260506200008 11 72 6.4 6.4 0.00 0.03 0.03 73 1011.8
20260506195404 11 72 6.4 11.3 0.00 0.03 0.03 73 1011.5
20260506194505 11 59 9.7 16.1 0.00 0.03 0.03 72 1011.7
20260506193603 11 63 9.7 16.1 0.00 0.03 0.03 72 1011.8
20260506192705 11 61 9.7 16.1 0.00 0.03 0.03 73 1011.6
20260506191805 11 69 9.7 16.1 0.00 0.03 0.03 73 1011.2
20260506190906 11 48 9.7 11.3 0.00 0.03 0.03 74 1011.3
20260506190005 11 51 8.0 8.0 0.00 0.03 0.03 74 1011.1
20260506185405 11 50 8.0 9.7 0.00 0.03 0.03 74 1010.9
20260506184722 11 46 8.0 12.9 0.00 0.03 0.03 75 1010.8
20260506183604 11 50 11.3 11.3 0.00 0.03 0.03 74 1010.7
20260506182705 11 50 9.7 11.3 0.00 0.03 0.03 74 1010.9
20260506181808 11 49 9.7 11.3 0.00 0.03 0.03 73 1010.6
20260506180903 12 57 9.7 11.3 0.00 0.03 0.03 71 1010.4
20260506180005 12 76 11.3 11.3 0.00 0.03 0.03 69 1010.3
20260506175405 12 64 9.7 11.3 0.00 0.03 0.03 66 1010.2
20260506174505 12 63 8.0 11.3 0.00 0.03 0.03 62 1010.1
20260506173603 13 51 8.0 11.3 0.00 0.03 0.03 62 1010.2
20260506172703 13 42 6.4 8.0 0.00 0.03 0.03 64 1009.8
20260506171803 13 56 8.0 11.3 0.00 0.03 0.03 66 1009.8
20260506170905 13 35 8.0 11.3 0.00 0.03 0.03 65 1009.5
20260506170010 13 63 8.0 11.3 0.00 0.03 0.03 64 1009.8
20260506165616 13 53 8.0 9.7 0.00 0.03 0.03 64 1009.6
20260506164718 13 43 9.7 12.9 0.00 0.03 0.03 66 1009.3
20260506163604 14 42 9.7 11.3 0.00 0.03 0.03 63 1009.3
20260506162705 15 36 8.0 11.3 0.00 0.03 0.03 62 1009.3
20260506161804 15 19 6.4 9.7 0.00 0.03 0.03 63 1009.1
20260506160903 14 25 8.0 11.3 0.00 0.03 0.03 63 1009.1
20260506160214 15 42 6.4 11.3 0.00 0.03 0.03 62 1009.2
20260506155616 14 40 8.0 9.7 0.00 0.03 0.03 61 1009.0
20260506154503 15 26 4.8 8.0 0.00 0.03 0.03 59 1009.4
20260506153603 15 3 4.8 8.0 0.00 0.03 0.03 60 1009.1
20260506152918 15 333 4.8 8.0 0.00 0.03 0.03 60 1009.4
20260506151804 14 28 8.0 9.7 0.00 0.03 0.03 59 1009.0
20260506150903 15 47 4.8 9.7 0.00 0.03 0.03 64 1009.2
20260506150225 15 96 6.4 8.0 0.00 0.03 0.03 67 1009.1
20260506145405 14 46 8.0 8.0 0.00 0.03 0.03 67 1009.3
20260506144505 14 31 8.0 9.7 0.00 0.03 0.03 66 1009.2
20260506143605 14 41 8.0 9.7 0.00 0.03 0.03 65 1009.2
20260506142704 15 24 6.4 8.0 0.00 0.03 0.03 64 1009.2
20260506141805 15 27 6.4 11.3 0.00 0.03 0.03 63 1009.0
20260506140905 15 35 9.7 11.3 0.00 0.03 0.03 60 1009.1
20260506140216 15 27 9.7 11.3 0.00 0.03 0.03 62 1009.2
20260506135404 15 348 8.0 11.3 0.00 0.03 0.03 60 1009.0
20260506134505 15 339 6.4 9.7 0.00 0.03 0.03 62 1009.3
20260506133609 15 39 9.7 12.9 0.00 0.03 0.03 61 1009.0
20260506132705 15 65 9.7 9.7 0.00 0.03 0.03 64 1008.9
20260506131804 15 50 9.7 11.3 0.00 0.03 0.03 66 1009.1
20260506130910 15 45 6.4 8.0 0.00 0.03 0.03 67 1009.0
20260506130216 13 45 8.0 12.9 0.00 0.03 0.03 68 1009.0
20260506125405 13 33 9.7 11.3 0.00 0.03 0.03 69 1009.0
20260506124504 13 49 11.3 16.1 0.00 0.03 0.03 69 1008.9
20260506123605 15 53 8.0 12.9 0.00 0.03 0.03 68 1008.7
20260506122705 15 50 8.0 12.9 0.00 0.03 0.03 67 1008.9
20260506121803 15 50 8.0 11.3 0.00 0.03 0.03 67 1008.7
20260506120903 15 45 11.3 12.9 0.00 0.03 0.03 65 1008.7
20260506120008 15 21 9.7 16.1 0.00 0.03 0.03 69 1008.8
20260506115614 15 19 9.7 16.1 0.00 0.03 0.03 69 1008.8
20260506114505 15 45 9.7 16.1 0.00 0.03 0.03 71 1008.7
20260506113604 14 333 8.0 11.3 0.00 0.03 0.03 76 1008.5
20260506112916 14 14 9.7 11.3 0.00 0.03 0.03 75 1008.6
20260506111805 13 12 8.0 8.0 0.00 0.03 0.03 77 1008.8
20260506111115 13 6 8.0 8.0 0.00 0.03 0.03 78 1008.8
20260506110004 13 27 6.4 9.7 0.00 0.03 0.03 78 1008.8
20260506105405 13 358 6.4 8.0 0.00 0.03 0.03 78 1008.7
20260506104503 14 50 4.8 8.0 0.00 0.03 0.03 78 1009.0
20260506103610 14 325 4.8 6.4 0.00 0.03 0.03 79 1008.9
20260506102703 13 30 6.4 9.7 0.00 0.03 0.03 82 1008.7
20260506101803 13 30 8.0 11.3 0.00 0.03 0.03 81 1008.9
20260506100905 13 22 6.4 8.0 0.00 0.03 0.03 83 1008.7
20260506100218 13 29 4.8 6.4 0.00 0.03 0.03 84 1008.8
20260506095403 12 315 6.4 8.0 0.00 0.03 0.03 86 1008.9
20260506094508 12 302 4.8 6.4 0.00 0.03 0.03 89 1008.9
20260506093603 11 357 4.8 4.8 0.00 0.03 0.03 92 1008.8
20260506092703 11 256 4.8 4.8 0.00 0.03 0.03 95 1008.9
20260506091805 11 300 4.8 4.8 0.00 0.03 0.03 96 1008.7
20260506090904 10 264 4.8 4.8 0.00 0.03 0.03 97 1008.7
20260506090005 10 297 4.8 8.0 0.00 0.03 0.03 98 1008.6
20260506085404 10 281 4.8 8.0 0.00 0.03 0.03 99 1008.8
20260506084504 10 266 3.2 4.8 0.00 0.03 0.03 99 1008.8
20260506083612 10 332 3.2 4.8 0.00 0.03 0.03 99 1008.6
20260506082705 10 291 1.6 3.2 0.00 0.03 0.03 99 1008.3
20260506081803 9 8 3.2 6.4 0.00 0.03 0.03 99 1008.4
20260506080905 9 352 3.2 8.0 0.00 0.03 0.03 99 1008.6